Change the Weather History Date:

Saturday, February 4, 2012

  Actual Average Record
Temperature  
Mean Temperature 35 °F -  
Max Temperature 53 °F 47 °F 69 °F (1963)
Min Temperature 17 °F 20 °F 1 °F (1955)
Degree Days  
Heating Degree Days 30    
Moisture  
Dew Point 18 °F    
Average Humidity 57    
Maximum Humidity 81    
Minimum Humidity 27    
Precipitation  
Precipitation 0.00 in - - ()
Sea Level Pressure  
Sea Level Pressure 30.28 in    
Wind  
Wind Speed 1 mph (ENE)    
Max Wind Speed 9 mph    
Max Gust Speed -    
Visibility 10 miles    
Events      
Averages and records for this station are not official NWS values.
T = Trace of Precipitation, MM = Missing Value Source: NWS Daily Summary

Daily Weather History Graph

Daily Weather History Graph

Search for Another Location

Airport or City:

Trip Planner

Search our weather history database for the weather conditions in past years. The results will help you decide how hot, cold, wet, or windy it might be!

Date:

Astronomy

Feb. 04, 2012 Rise Set
Actual Time 7:00 AM PST 5:16 PM PST
Civil Twilight 6:31 AM PST 5:44 PM PST
Nautical Twilight 5:59 AM PST 6:17 PM PST
Astronomical Twilight 5:27 AM PST 6:49 PM PST
Moon 2:18 PM PST (2/4) 4:29 AM PST (2/4)
Length of Visible Light 11h 13m
Length of Day
10h 16m
Waxing Gibbous, 89% of the Moon is Illuminated
Feb 4
Waxing Gibbous
Feb 7
Full
Feb 14
Last Quarter
Feb 21
New
Feb 29
First Quarter

Hourly Weather History & Observations

Time (PST) Temp. Windchill Dew Point Humidity Pressure Visibility Wind Dir Wind Speed Gust Speed Precip Events Conditions
12:53 AM 19.0 °F - 12.0 °F 74% 30.27 in 10.0 mi Calm Calm - N/A   Clear
1:53 AM 19.0 °F - 10.9 °F 71% 30.27 in 10.0 mi Calm Calm - N/A   Clear
2:53 AM 18.0 °F - 10.9 °F 74% 30.27 in 10.0 mi Calm Calm - N/A   Clear
3:53 AM 21.0 °F - 14.0 °F 74% 30.27 in 10.0 mi Calm Calm - N/A   Clear
4:53 AM 19.0 °F - 12.9 °F 77% 30.28 in 10.0 mi Calm Calm - N/A   Clear
5:53 AM 14.0 °F - 9.0 °F 80% 30.31 in 10.0 mi Calm Calm - N/A   Clear
6:53 AM 17.1 °F 8.7 °F 12.0 °F 81% 30.34 in 10.0 mi WNW 5.8 mph - N/A   Clear
7:53 AM 21.9 °F - 16.0 °F 78% 30.35 in 10.0 mi Calm Calm - N/A   Clear
8:53 AM 30.0 °F - 19.0 °F 64% 30.36 in 10.0 mi Calm Calm - N/A   Clear
9:53 AM 37.9 °F 31.5 °F 21.9 °F 53% 30.34 in 10.0 mi ENE 9.2 mph - N/A   Clear
10:53 AM 42.1 °F 38.4 °F 24.1 °F 49% 30.33 in 10.0 mi East 5.8 mph - N/A   Clear
11:53 AM 46.0 °F 44.8 °F 23.0 °F 40% 30.30 in 10.0 mi East 3.5 mph - N/A   Clear
12:53 PM 50.0 °F - 21.9 °F 33% 30.26 in 10.0 mi Calm Calm - N/A   Clear
1:53 PM 51.1 °F - 21.9 °F 32% 30.24 in 10.0 mi NE 4.6 mph - N/A   Clear
2:53 PM 52.0 °F - 21.0 °F 30% 30.23 in 10.0 mi SSE 3.5 mph - N/A   Clear
3:53 PM 53.1 °F - 19.9 °F 27% 30.21 in 10.0 mi Calm Calm - N/A   Clear
4:53 PM 48.9 °F - 23.0 °F 36% 30.23 in 10.0 mi Calm Calm - N/A   Clear
5:53 PM 39.9 °F - 19.9 °F 45% 30.25 in 10.0 mi Calm Calm - N/A   Clear
6:53 PM 36.0 °F - 19.0 °F 50% 30.25 in 10.0 mi Calm Calm - N/A   Clear
7:53 PM 28.9 °F - 17.1 °F 61% 30.27 in 10.0 mi Calm Calm - N/A   Clear
8:53 PM 30.0 °F - 18.0 °F 61% 30.26 in 10.0 mi Calm Calm - N/A   Clear
9:53 PM 24.1 °F 16.0 °F 14.0 °F 65% 30.26 in 10.0 mi East 6.9 mph - N/A   Clear
10:53 PM 34.0 °F 28.0 °F 19.0 °F 54% 30.25 in 10.0 mi NE 6.9 mph - N/A   Clear
11:53 PM 21.0 °F 13.4 °F 12.9 °F 71% 30.29 in 10.0 mi WSW 5.8 mph - N/A   Clear